Back to catalog

OPTIMUS-2

AliveScienceSSO
NORAD 59128·PAYLOAD·🇦🇺 Australia
This satellite name has not been confirmed by official sources yet.

Launched Mar 4, 2024 from Vandenberg Space Force Base

Loading…

Next Passes (next 24 hours)

TLE

FreshSource: Space-Track

Epoch: Sep 13, 2026, 21:40 UTC

1 59128U 24043AG  26256.90318308  .00005044  00000-0  16044-3 0  9992
2 59128  97.5776  37.6079 0008234 288.0942  71.9402 15.33053811140705

Track OPTIMUS-2 in real time with AllMySat

Download on the App Store